Location: Peterborough
(44.3091°N, 78.3197°W)
Time: 18:15:27
(UTC-04:00)

Tiros 1 despin weight - Visible Passes

Search period start: 15 April 2024 00:00
Search period end: 25 April 2024 00:00
Orbit: 579 x 623 km, 48.2° (Epoch: 14 April)

Date Brightness Start Highest point End Pass type
(mag) Time Alt. Az. Time Alt. Az. Time Alt. Az.
15 Apr ? 21:26:32 10° WNW 21:30:53 44° SW 21:33:10 25° SSE visible
16 Apr ? 21:37:51 10° W 21:41:45 28° SW 21:43:51 20° S visible
17 Apr ? 21:49:35 10° W 21:52:31 17° SW 21:54:35 13° SSW visible
19 Apr ? 20:29:48 10° W 20:33:40 27° SW 20:37:33 10° SSE visible
20 Apr ? 20:41:31 10° W 20:44:25 17° SW 20:47:18 10° S visible
